Location: Moscow
(30.9132°N, 94.8252°W)
Time: 05:29:59
(UTC+00:00)

OAO 3 Copernicus - Pass Details

Date: 15 November 2025
Orbit: 689 x 698 km, 35.0° (Epoch: 04 December)

Event Time Altitude Azimuth Distance (km) Brightness Sun altitude
Rises 01:12:09 0° 286° (WNW) 3,064 8.7 -23.7°
Reaches altitude 10° 01:14:35 10° 289° (WNW) 2,147 7.7 -24.2°
Enters shadow 01:19:26 64° 0° (N) 767 4.4 -25.2°
